Вернуться в каталог

FENGYUN 1C DEB

АктивенPO
NORAD 36255·DEBRIS·🇨🇳 China

Запущен May 10, 1999 с Taiyuan Satellite Launch Center

Loading…

Ближайшие Пролёты (ближайшие 24 часа)

TLE

СвежийSource: Space-Track

Эпоха: Sep 14, 2026, 02:51 UTC

1 36255U 99025DWG 26257.11889183  .00001377  00000-0  46419-3 0  9992
2 36255  99.4498 209.4244 0064631  85.9814 330.2271 14.37684380679662

Отслеживайте FENGYUN 1C DEB в реальном времени с AllMySat

Download on the App Store